User: anonymous   Login
Location: Albany
(35.0000°S, 118.0000°E)
Time: 13:30:34
(UTC-04:00)
Language:

Transit 2A - Orbit

View from above orbital plane
View from above orbital plane
View from above satellite
View from above satellite

Ground track
Ground track

The orbit data is extracted from the following two-line orbital elements,

1 00045U 60007A   14302.44838081  .00000219  00000-0  82262-4 0  2739
2 00045 066.6973 043.0095 0255984 011.7362 057.2842 14.33095801827731
Epoch (UTC): 29 October 2014 10:45:40
Eccentricity: 0.0255984
inclination: 66.6973°
perigee height: 598 km
apogee height: 964 km
right ascension of ascending node: 43.0095°
argument of perigee: 11.7362°
revolutions per day: 14.33095801
mean anomaly at epoch: 57.2842°
orbit number at epoch: 82773

The dashed part of the orbit path shows where the satellite is in the earth's shadow,  

DLR